Weather History for KEFD - March, 2013

Change the Weather History Date:

Tuesday, March 5, 2013

  Actual Average Record
Temperature  
Mean Temperature 62 °F -  
Max Temperature 69 °F 67 °F 82 °F (1998)
Min Temperature 53 °F 50 °F 33 °F (2002)
Degree Days  
Heating Degree Days 3    
Growing Degree Days 12 (Base 50)    
Moisture  
Dew Point 42 °F    
Average Humidity 50    
Maximum Humidity 88    
Minimum Humidity 23    
Precipitation  
Precipitation 0.00 in - - ()
Sea Level Pressure  
Sea Level Pressure 30.11 in    
Wind  
Wind Speed 14 mph (NW)    
Max Wind Speed 22 mph    
Max Gust Speed 28 mph    
Visibility 10 miles    
Events      
Averages and records for this station are not official NWS values.
T = Trace of Precipitation, MM = Missing Value Source: NWS Daily Summary

Daily Weather History Graph

Daily Weather History Graph

Search for Another Location

Airport or City:

Trip Planner

Search our weather history database for the weather conditions in past years. The results will help you decide how hot, cold, wet, or windy it might be!

Date:

Astronomy

Mar. 05, 2013 Rise Set
Actual Time 6:41 AM CST 6:22 PM CST
Civil Twilight 6:17 AM CST 6:46 PM CST
Nautical Twilight 5:50 AM CST 7:14 PM CST
Astronomical Twilight 5:22 AM CST 7:41 PM CST
Moon 1:35 AM CST (3/5) 12:22 PM CST (3/5)
Length of Visible Light 12h 28m
Length of Day
11h 41m
Last Quarter, 40% of the Moon is Illuminated
Mar 5
Last Quarter
Mar 11
New
Mar 19
First Quarter
Mar 27
Full
Apr 2
Last Quarter

Hourly Weather History & Observations

Time (CST) Temp. Dew Point Humidity Pressure Visibility Wind Dir Wind Speed Gust Speed Precip Events Conditions
12:50 AM 68.0 °F 64.4 °F 88% 29.85 in 10.0 mi South 15.0 mph 21.9 mph N/A   Overcast
1:50 AM 68.0 °F 64.4 °F 88% 29.86 in 10.0 mi SSW 13.8 mph - N/A   Overcast
2:50 AM 68.0 °F 64.4 °F 88% 29.85 in 10.0 mi SSW 16.1 mph 23.0 mph N/A   Overcast
3:50 AM 68.0 °F 64.4 °F 88% 29.85 in 10.0 mi SSW 15.0 mph 25.3 mph N/A   Overcast
4:50 AM 68.0 °F 62.6 °F 83% 29.93 in 10.0 mi SSW 11.5 mph 20.7 mph N/A   Overcast
5:50 AM 68.0 °F 62.6 °F 83% 30.00 in 10.0 mi WSW 9.2 mph - N/A   Mostly Cloudy
6:50 AM 68.0 °F 62.6 °F 83% 30.02 in 10.0 mi WSW 5.8 mph - N/A   Mostly Cloudy
7:50 AM 66.2 °F 53.6 °F 64% 30.06 in 10.0 mi WNW 18.4 mph 26.5 mph N/A   Mostly Cloudy
8:50 AM 60.8 °F 44.6 °F 55% 30.12 in 10.0 mi NW 21.9 mph - N/A   Mostly Cloudy
9:50 AM 59.0 °F 41.0 °F 51% 30.14 in 10.0 mi NNW 18.4 mph 26.5 mph N/A   Scattered Clouds
10:50 AM 62.6 °F 39.2 °F 42% 30.16 in 10.0 mi NNW 21.9 mph 27.6 mph N/A   Scattered Clouds
11:50 AM 64.4 °F 37.4 °F 37% 30.18 in 10.0 mi NNW 17.3 mph - N/A   Scattered Clouds
12:50 PM 66.2 °F 37.4 °F 35% 30.16 in 10.0 mi NNW 16.1 mph - N/A   Scattered Clouds
1:50 PM 69.8 °F 39.2 °F 33% 30.16 in 10.0 mi North 16.1 mph - N/A   Scattered Clouds
2:50 PM 69.8 °F 33.8 °F 27% 30.16 in 10.0 mi North 13.8 mph 23.0 mph N/A   Scattered Clouds
3:50 PM 69.8 °F 32.0 °F 25% 30.17 in 10.0 mi North 13.8 mph - N/A   Mostly Cloudy
4:50 PM 68.0 °F 28.4 °F 23% 30.18 in 10.0 mi NW 16.1 mph - N/A   Mostly Cloudy
6:50 PM 62.6 °F 24.8 °F 24% 30.23 in 10.0 mi NW 10.4 mph - N/A   Mostly Cloudy
7:50 PM 60.8 °F 24.8 °F 25% 30.24 in 10.0 mi NNW 11.5 mph - N/A   Scattered Clouds
8:50 PM 59.0 °F 23.0 °F 25% 30.27 in 10.0 mi NNW 12.7 mph - N/A   Scattered Clouds
9:50 PM 57.2 °F 21.2 °F 25% 30.29 in 10.0 mi NNW 11.5 mph - N/A   Partly Cloudy
10:50 PM 55.4 °F 21.2 °F 26% 30.30 in 10.0 mi NNW 10.4 mph - N/A   Partly Cloudy
11:50 PM 53.6 °F 21.2 °F 28% 30.31 in 10.0 mi North 11.5 mph - N/A   Clear